星链-30153 (STARLINK-30153 )

导读 | 豆包AI

STARLINK-30153是美国SpaceX星链星座的卫星,于2023年8月7日发射升空,属于星链卫星互联网星座组网单元,为全球提供低延迟宽带互联网服务,填补偏远地区网络覆盖空白,是星链大规模部署中新增的节点,拓展了星座的服务覆盖范围与容量,助推低轨卫星互联网的商用化进程。

基本信息
目录编号:
57510
目录名称:
STARLINK-30153
国际标识:
2023-113R
轨道中心:
EARTH
卫星名称:
星链-30153
卫星全名:
星链-30153 (STARLINK-30153 )
卫星状态:
在轨 (已飞行997 天)
发射日期:
2023-08-07 UTC
国别 :
美国 (US)
星等 :
--
轨道信息
数据来源 国际轨道数据
星历时间: 2026-04-30T05:58:05+0800
17小时前
查看轨道信息
半长轴: 6861.177km
偏心率: 0.0001386
轨道倾角: 43.004°
近地点辐角 265.842°
升交点赤经 86.428°
平近点角 94.227°
近地点: 482.089km
远地点: 483.991km
周期: 94.267分钟
每日圈数: 15.275831
详细信息
固有亮度:
5
最大亮度:
0.3
卫星平台:
Starlink v2.0 mini
覆盖范围:
全球
运营商:
太空探索技术公司
运营商所在国:
美国
制造商(研发单位):
太空探索技术公司
制造商所在国:
美国
使用方式:
暂无
卫星简介
星链(Starlink)计划是由太空探索技术公司(SpaceX)提出的一个巨型低轨卫星互联网星座项目,计划在2019年至2024年间在太空搭建由约1.2万颗卫星组成的“星链”网络,其中1584颗将部署在地球上空550千米处的近地轨道,并从2020年开始工作。该卫星仍在工作。
2D轨道图
3D轨道图
轨道高度分析图
轨道倾角分析图
轨道综合分析图
查看轨道综合分析图